Weather History for YTEF - March, 2013

Change the Weather History Date:

Friday, March 22, 2013

  Actual Average Record
Temperature  
Mean Temperature 92 °F -  
Max Temperature 106 °F - - ()
Min Temperature 77 °F - - ()
Cooling Degree Days 26    
Growing Degree Days 42 (Base 50)    
Moisture  
Dew Point 57 °F    
Average Humidity 28    
Maximum Humidity 51    
Minimum Humidity 12    
Precipitation  
Precipitation 0.00 in - - ()
Sea Level Pressure  
Sea Level Pressure 29.80 in    
Wind  
Wind Speed 9 mph ()    
Max Wind Speed 14 mph    
Max Gust Speed 17 mph    
T = Trace of Precipitation, MM = Missing Value Source: Averaged Metar Reports

Daily Weather History Graph

Daily Weather History Graph

Search for Another Location

Airport or City:

Trip Planner

Search our weather history database for the weather conditions in past years. The results will help you decide how hot, cold, wet, or windy it might be!

Date:

Astronomy

Mar. 22, 2013 Rise Set
Actual Time 5:55 AM AWST 6:00 PM AWST
Civil Twilight 5:33 AM AWST 6:22 PM AWST
Nautical Twilight 5:07 AM AWST 6:48 PM AWST
Astronomical Twilight 4:41 AM AWST 7:14 PM AWST
Moon 2:20 PM AWST (3/22) 1:00 AM AWST (3/22)
Length of Visible Light 12h 49m
Length of Day
12h 04m
Waxing Gibbous, 73% of the Moon is Illuminated
Mar 22
Waxing Gibbous
Mar 27
Full
Apr 3
Last Quarter
Apr 10
New
Apr 18
First Quarter

Hourly Weather History & Observations

Time (AWST) Temp. Heat Index Dew Point Humidity Pressure Visibility Wind Dir Wind Speed Gust Speed Precip Events Conditions
12:00 AM 87 °F - 57 °F 25% 29.76 in - SSE 11.5 mph - -  
12:00 AM 86.0 °F 84.9 °F 57.2 °F 37% 29.80 in - SSE 11.5 mph - N/A   Unknown
1:00 AM 86.0 °F 84.9 °F 57.2 °F 37% 29.80 in - SSE 10.4 mph - N/A   Unknown
2:00 AM 82 °F - 57 °F 32% 29.73 in - SE 8.1 mph - -  
2:00 AM 82.4 °F 82.0 °F 57.2 °F 42% 29.77 in - SE 8.1 mph - N/A   Unknown
3:00 AM 78 °F - 58 °F 40% 29.73 in - ESE 6.9 mph - -  
3:00 AM 78.8 °F - 59.0 °F 51% 29.77 in - ESE 6.9 mph - N/A   Unknown
4:00 AM 78.8 °F - 59.0 °F 51% 29.77 in - SE 6.9 mph - N/A   Unknown
5:00 AM 83 °F - 57 °F 31% 29.76 in - South 9.2 mph - -  
5:00 AM 82.4 °F 82.0 °F 57.2 °F 42% 29.83 in - South 9.2 mph - N/A   Unknown
6:00 AM 83 °F - 57 °F 30% 29.79 in - SSW 6.9 mph - -  
6:00 AM 82.4 °F 82.0 °F 57.2 °F 42% 29.83 in - SSW 6.9 mph - N/A   Unknown
7:00 AM 84.2 °F 83.5 °F 57.2 °F 40% 29.86 in - South 9.2 mph - N/A   Unknown
8:00 AM 89 °F - 58 °F 25% 29.83 in - South 13.8 mph - -  
8:00 AM 89.6 °F 88.9 °F 59.0 °F 36% 29.89 in - South 13.8 mph - N/A   Unknown
9:00 AM 92 °F - 59 °F 24% 29.84 in - SSE 10.4 mph - -  
9:00 AM 93.2 °F 92.6 °F 59.0 °F 32% 29.89 in - SSE 10.4 mph - N/A   Unknown
10:00 AM 95.0 °F 94.4 °F 59.0 °F 30% 29.89 in - ESE 10.4 mph - N/A   Unknown
11:00 AM 100 °F - 59 °F 17% 29.81 in - East 10.4 mph - -  
11:00 AM 100.4 °F 100.2 °F 59.0 °F 25% 29.86 in - East 10.4 mph - N/A   Unknown
12:00 PM 101 °F - 57 °F 15% 29.78 in - East 5.8 mph - -  
12:00 PM 102.2 °F 101.4 °F 57.2 °F 22% 29.83 in - East 5.8 mph 17.3 mph N/A   Unknown
1:00 PM 104.0 °F 104.6 °F 59.0 °F 23% 29.80 in - ESE 5.8 mph - N/A   Unknown
2:00 PM 105 °F - 56 °F 12% 29.73 in - ESE 11.5 mph - -  
2:00 PM 105.8 °F 104.9 °F 55.4 °F 19% 29.77 in - ESE 11.5 mph - N/A   Unknown
3:00 PM 102 °F - 55 °F 13% 29.72 in - ESE 13.8 mph - -  
3:00 PM 102.2 °F 100.9 °F 55.4 °F 21% 29.77 in - ESE 13.8 mph - N/A   Unknown
4:00 PM 104.0 °F 102.9 °F 55.4 °F 20% 29.77 in - SSE 13.8 mph - N/A   Unknown
5:00 PM 102 °F - 57 °F 15% 29.72 in - SSE 12.7 mph - -  
5:00 PM 102.2 °F 101.4 °F 57.2 °F 22% 29.77 in - SSE 12.7 mph - N/A   Unknown
6:00 PM 98 °F - 58 °F 17% 29.75 in - SSE 10.4 mph - -  
6:00 PM 98.6 °F 97.6 °F 57.2 °F 25% 29.80 in - SSE 10.4 mph - N/A   Unknown
7:00 PM 96.8 °F 95.8 °F 57.2 °F 27% 29.83 in - SSE 11.5 mph - N/A   Unknown
8:00 PM 94 °F - 56 °F 18% 29.80 in - SSE 13.8 mph - -  
8:00 PM 93.2 °F 91.3 °F 55.4 °F 28% 29.86 in - SSE 13.8 mph - N/A   Unknown
9:00 PM 88 °F - 56 °F 24% 29.82 in - East 8.1 mph - -  
9:00 PM 87.8 °F 86.5 °F 57.2 °F 35% 29.89 in - East 8.1 mph - N/A   Unknown
10:00 PM 87.8 °F 86.1 °F 55.4 °F 33% 29.86 in - SSE 8.1 mph - N/A   Unknown
11:00 PM 87 °F - 56 °F 25% 29.80 in - SSE 6.9 mph - -  
11:00 PM 87.8 °F 86.5 °F 57.2 °F 35% 29.86 in - SSE 6.9 mph - N/A   Unknown